| time (UTC) | temp F | wind direction | speed knots | gust knots | rain 1hr in | rain 24hr in | rain mn in | humidity % | barometer mb |
| 20260506041552 | 68 | 202 | 2.6 | 12.2 | 0.00 | 0.00 | 0.00 | 68 | 1010.2 |
| 20260506040048 | 68 | 155 | 2.6 | 10.4 | 0.00 | 0.00 | 0.00 | 68 | 1010.1 |
| 20260506034545 | 68 | 162 | 3.5 | 11.3 | 0.00 | 0.00 | 0.00 | 68 | 1010.3 |
| 20260506033051 | 68 | 145 | 0.9 | 7.0 | 0.00 | 0.00 | 0.00 | 68 | 1010.4 |
| 20260506031556 | 68 | 148 | 1.7 | 7.8 | 0.00 | 0.00 | 0.00 | 67 | 1010.4 |
| 20260506030105 | 68 | 137 | 1.7 | 7.0 | 0.00 | 0.00 | 0.00 | 66 | 1010.4 |
| 20260506024549 | 68 | 134 | 0.9 | 7.8 | 0.00 | 0.00 | 0.00 | 65 | 1010.4 |
| 20260506023049 | 69 | 155 | 3.5 | 8.7 | 0.00 | 0.00 | 0.00 | 64 | 1010.5 |
| 20260506021550 | 69 | 144 | 1.7 | 8.7 | 0.00 | 0.00 | 0.00 | 63 | 1010.5 |
| 20260506020046 | 69 | 181 | 1.7 | 8.7 | 0.00 | 0.00 | 0.00 | 62 | 1010.5 |
| 20260506014543 | 69 | 0 | 0.9 | 7.8 | 0.00 | 0.00 | 0.00 | 61 | 1010.5 |
| 20260506013046 | 69 | 142 | 1.7 | 8.7 | 0.00 | 0.00 | 0.00 | 60 | 1010.3 |
| 20260506011554 | 69 | 178 | 0.9 | 8.7 | 0.00 | 0.00 | 0.00 | 59 | 1010.1 |
| 20260506010054 | 69 | 153 | 2.6 | 7.0 | 0.00 | 0.00 | 0.00 | 58 | 1010.0 |
| 20260506004620 | 69 | 178 | 2.6 | 8.7 | 0.00 | 0.00 | 0.00 | 57 | 1009.9 |
| 20260506003045 | 69 | 178 | 4.3 | 10.4 | 0.00 | 0.00 | 0.00 | 57 | 1010.1 |
| 20260506001546 | 69 | 152 | 1.7 | 8.7 | 0.00 | 0.00 | 0.00 | 56 | 1010.3 |
| 20260506000054 | 69 | 151 | 2.6 | 8.7 | 0.00 | 0.00 | 0.00 | 54 | 1010.3 |
| 20260505234611 | 69 | 158 | 2.6 | 8.7 | 0.00 | 0.00 | 0.00 | 54 | 1010.3 |
| 20260505233045 | 70 | 160 | 2.6 | 14.8 | 0.00 | 0.00 | 0.00 | 54 | 1010.2 |
| 20260505231550 | 70 | 166 | 6.1 | 13.9 | 0.00 | 0.00 | 0.00 | 54 | 1009.7 |
| 20260505230050 | 71 | 158 | 5.2 | 18.2 | 0.00 | 0.00 | 0.00 | 51 | 1010.4 |
| 20260505224546 | 71 | 238 | 1.7 | 10.4 | 0.00 | 0.00 | 0.00 | 52 | 1011.8 |
| 20260505223100 | 72 | 216 | 3.5 | 6.1 | 0.00 | 0.00 | 0.00 | 50 | 1011.2 |
| 20260505221558 | 74 | 186 | 2.6 | 8.7 | 0.00 | 0.00 | 0.00 | 47 | 1010.5 |
| 20260505214559 | 75 | 163 | 5.2 | 13.0 | 0.00 | 0.00 | 0.00 | 50 | 1010.3 |
| 20260505213048 | 75 | 169 | 6.1 | 14.8 | 0.00 | 0.00 | 0.00 | 48 | 1010.2 |
| 20260505211554 | 75 | 169 | 4.3 | 12.2 | 0.00 | 0.00 | 0.00 | 49 | 1010.2 |
| 20260505210046 | 75 | 159 | 5.2 | 13.0 | 0.00 | 0.00 | 0.00 | 50 | 1010.3 |
| 20260505204553 | 75 | 198 | 3.5 | 9.6 | 0.00 | 0.00 | 0.00 | 51 | 1010.6 |
| 20260505203045 | 74 | 134 | 3.5 | 12.2 | 0.00 | 0.00 | 0.00 | 52 | 1010.9 |
| 20260505201555 | 73 | 151 | 7.0 | 17.4 | 0.00 | 0.00 | 0.00 | 52 | 1011.0 |
| 20260505200100 | 73 | 145 | 3.5 | 13.9 | 0.00 | 0.00 | 0.00 | 56 | 1011.5 |
| 20260505194544 | 73 | 163 | 3.5 | 8.7 | 0.00 | 0.00 | 0.00 | 59 | 1011.8 |
| 20260505193046 | 71 | 131 | 3.5 | 11.3 | 0.00 | 0.00 | 0.00 | 59 | 1011.9 |
| 20260505191547 | 71 | 141 | 2.6 | 9.6 | 0.00 | 0.00 | 0.00 | 63 | 1012.3 |
| 20260505190050 | 72 | 155 | 0.9 | 7.0 | 0.00 | 0.00 | 0.00 | 59 | 1012.7 |
| 20260505184545 | 71 | 0 | 3.5 | 7.0 | 0.00 | 0.00 | 0.00 | 60 | 1013.1 |
| 20260505183051 | 70 | 163 | 1.7 | 7.0 | 0.00 | 0.00 | 0.00 | 62 | 1012.5 |
| 20260505181554 | 70 | 151 | 2.6 | 7.8 | 0.00 | 0.00 | 0.00 | 62 | 1012.8 |
| 20260505180053 | 69 | 0 | 0.9 | 7.0 | 0.00 | 0.00 | 0.00 | 64 | 1013.3 |
| 20260505174552 | 69 | 210 | 2.6 | 7.0 | 0.00 | 0.00 | 0.00 | 64 | 1013.7 |
| 20260505173056 | 70 | 209 | 6.1 | 11.3 | 0.00 | 0.00 | 0.00 | 60 | 1014.0 |
| 20260505171554 | 71 | 188 | 1.7 | 8.7 | 0.00 | 0.00 | 0.00 | 63 | 1014.0 |
| 20260505170053 | 71 | 219 | 0.9 | 8.7 | 0.00 | 0.00 | 0.00 | 65 | 1014.2 |
| 20260505164546 | 71 | 236 | 2.6 | 6.1 | 0.00 | 0.00 | 0.00 | 64 | 1014.2 |
| 20260505163049 | 70 | 247 | 3.5 | 7.8 | 0.00 | 0.00 | 0.00 | 65 | 1014.7 |
| 20260505161544 | 70 | 238 | 2.6 | 7.8 | 0.00 | 0.00 | 0.00 | 65 | 1014.9 |
| 20260505153048 | 68 | 205 | 1.7 | 6.1 | 0.00 | 0.00 | 0.00 | 71 | 1014.6 |
| 20260505151547 | 67 | 167 | 0.9 | 7.0 | 0.00 | 0.00 | 0.00 | 70 | 1014.6 |
| 20260505124600 | 61 | 135 | 2.6 | 7.0 | 0.00 | 0.00 | 0.00 | 73 | 1014.4 |
| 20260505123053 | 59 | 148 | 0.0 | 2.6 | 0.00 | 0.00 | 0.00 | 77 | 1014.2 |
| 20260505121550 | 58 | 150 | 0.9 | 4.3 | 0.00 | 0.00 | 0.00 | 76 | 1013.9 |
| 20260505120101 | 58 | 155 | 0.9 | 4.3 | 0.00 | 0.00 | 0.00 | 75 | 1013.7 |
| 20260505114547 | 57 | 135 | 1.7 | 3.5 | 0.00 | 0.00 | 0.00 | 75 | 1013.6 |
| 20260505113045 | 57 | 149 | 0.9 | 3.5 | 0.00 | 0.00 | 0.00 | 74 | 1013.5 |
| 20260505111548 | 57 | 149 | 0.0 | 2.6 | 0.00 | 0.00 | 0.00 | 74 | 1013.4 |
| 20260505101546 | 57 | 157 | 1.7 | 5.2 | 0.00 | 0.00 | 0.00 | 73 | 1012.8 |
| 20260505100048 | 57 | 135 | 2.6 | 6.1 | 0.00 | 0.00 | 0.00 | 74 | 1012.5 |
| 20260505094545 | 57 | 0 | 0.9 | 3.5 | 0.00 | 0.00 | 0.00 | 74 | 1012.7 |
| 20260505093045 | 58 | 0 | 0.0 | 2.6 | 0.00 | 0.00 | 0.00 | 73 | 1012.9 |
| 20260505091552 | 58 | 0 | 0.9 | 2.6 | 0.00 | 0.00 | 0.00 | 73 | 1012.9 |
| 20260505090048 | 58 | 0 | 0.9 | 3.5 | 0.00 | 0.00 | 0.00 | 72 | 1012.5 |
| 20260505084550 | 59 | 140 | 1.7 | 3.5 | 0.00 | 0.00 | 0.00 | 72 | 1012.5 |
| 20260505083044 | 59 | 138 | 0.9 | 3.5 | 0.00 | 0.00 | 0.00 | 73 | 1012.5 |
| 20260505081552 | 59 | 139 | 0.9 | 3.5 | 0.00 | 0.00 | 0.00 | 73 | 1012.5 |
| 20260505080053 | 59 | 143 | 1.7 | 3.5 | 0.00 | 0.00 | 0.00 | 73 | 1012.5 |
| 20260505074549 | 59 | 138 | 2.6 | 4.3 | 0.00 | 0.00 | 0.00 | 73 | 1012.5 |
| 20260505073053 | 59 | 142 | 0.9 | 3.5 | 0.00 | 0.00 | 0.00 | 73 | 1012.5 |
| 20260505071545 | 60 | 142 | 0.0 | 2.6 | 0.00 | 0.00 | 0.00 | 72 | 1012.7 |
| 20260505070055 | 60 | 137 | 0.9 | 2.6 | 0.00 | 0.00 | 0.00 | 71 | 1012.9 |
| 20260505064546 | 60 | 136 | 0.9 | 3.5 | 0.00 | 0.00 | 0.00 | 71 | 1013.0 |
| 20260505063109 | 61 | 136 | 1.7 | 6.1 | 0.00 | 0.00 | 0.00 | 70 | 1012.8 |
| 20260505061556 | 60 | 128 | 2.6 | 7.0 | 0.00 | 0.00 | 0.00 | 70 | 1012.9 |
| 20260505060049 | 61 | 0 | 1.7 | 4.3 | 0.00 | 0.00 | 0.00 | 69 | 1012.9 |
| 20260505054553 | 61 | 142 | 2.6 | 6.1 | 0.00 | 0.00 | 0.00 | 68 | 1013.1 |
| 20260505053056 | 62 | 142 | 2.6 | 4.3 | 0.00 | 0.00 | 0.00 | 68 | 1013.1 |
| 20260505051547 | 62 | 150 | 2.6 | 5.2 | 0.00 | 0.00 | 0.00 | 67 | 1013.0 |